| time (UTC) | temp F | wind direction | speed MPH | gust MPH | rain 1hr in | rain 24hr in | rain mn in | humidity % | barometer mb |
| 20260905002033 | 66 | 0 | 0.0 | 3.0 | 0.00 | 0.00 | 0.00 | 88 | 1022.7 |
| 20260905000043 | 66 | 0 | 0.0 | 3.0 | 0.00 | 0.00 | 0.00 | 88 | 1022.5 |
| 20260904234555 | 67 | 0 | 0.0 | 0.0 | 0.00 | 0.00 | 0.00 | 87 | 1022.5 |
| 20260904233051 | 67 | 0 | 0.0 | 0.0 | 0.00 | 0.00 | 0.00 | 86 | 1022.5 |
| 20260904231546 | 68 | 0 | 0.0 | 2.0 | 0.00 | 0.00 | 0.00 | 86 | 1022.3 |
| 20260904230043 | 68 | 0 | 0.0 | 3.0 | 0.00 | 0.00 | 0.00 | 85 | 1022.4 |
| 20260904224602 | 68 | 0 | 0.0 | 2.0 | 0.00 | 0.00 | 0.00 | 85 | 1022.2 |
| 20260904223049 | 69 | 0 | 0.0 | 4.0 | 0.00 | 0.00 | 0.00 | 84 | 1022.2 |
| 20260904221548 | 69 | 0 | 0.0 | 3.0 | 0.00 | 0.00 | 0.00 | 83 | 1022.1 |
| 20260904220045 | 70 | 0 | 0.0 | 4.0 | 0.00 | 0.00 | 0.00 | 82 | 1022.1 |
| 20260904214551 | 70 | 0 | 0.0 | 6.0 | 0.00 | 0.00 | 0.00 | 82 | 1022.3 |
| 20260904213044 | 71 | 0 | 0.0 | 3.0 | 0.00 | 0.00 | 0.00 | 81 | 1022.1 |
| 20260904211544 | 71 | 0 | 0.0 | 3.0 | 0.00 | 0.00 | 0.00 | 79 | 1022.0 |
| 20260904210054 | 72 | 286 | 0.0 | 3.0 | 0.00 | 0.00 | 0.00 | 77 | 1021.7 |
| 20260904204544 | 72 | 0 | 0.0 | 2.0 | 0.00 | 0.00 | 0.00 | 75 | 1021.6 |
| 20260904203044 | 73 | 0 | 0.0 | 2.0 | 0.00 | 0.00 | 0.00 | 73 | 1021.7 |
| 20260904201601 | 74 | 0 | 0.0 | 3.0 | 0.00 | 0.00 | 0.00 | 71 | 1021.5 |
| 20260904200049 | 74 | 0 | 0.0 | 2.0 | 0.00 | 0.00 | 0.00 | 68 | 1021.4 |
| 20260904194600 | 75 | 0 | 0.0 | 1.0 | 0.00 | 0.00 | 0.00 | 67 | 1021.3 |
| 20260904193043 | 76 | 0 | 0.0 | 4.0 | 0.00 | 0.00 | 0.00 | 66 | 1021.1 |
| 20260904191555 | 76 | 0 | 0.0 | 3.0 | 0.00 | 0.00 | 0.00 | 66 | 1021.0 |
| 20260904190046 | 77 | 0 | 0.0 | 6.0 | 0.00 | 0.00 | 0.00 | 64 | 1020.7 |
| 20260904184544 | 78 | 267 | 1.0 | 6.0 | 0.00 | 0.00 | 0.00 | 62 | 1020.4 |
| 20260904183043 | 80 | 281 | 0.0 | 7.0 | 0.00 | 0.00 | 0.00 | 57 | 1020.3 |
| 20260904181548 | 81 | 273 | 1.0 | 10.0 | 0.00 | 0.00 | 0.00 | 49 | 1020.2 |
| 20260904180044 | 82 | 289 | 2.0 | 7.0 | 0.00 | 0.00 | 0.00 | 45 | 1020.0 |
| 20260904174550 | 83 | 273 | 1.0 | 9.0 | 0.00 | 0.00 | 0.00 | 43 | 1019.8 |
| 20260904173107 | 84 | 261 | 3.0 | 11.0 | 0.00 | 0.00 | 0.00 | 43 | 1019.9 |
| 20260904171555 | 85 | 274 | 2.0 | 9.0 | 0.00 | 0.00 | 0.00 | 43 | 1019.7 |
| 20260904170045 | 85 | 230 | 4.0 | 11.0 | 0.00 | 0.00 | 0.00 | 43 | 1019.7 |
| 20260904164555 | 85 | 283 | 2.0 | 10.0 | 0.00 | 0.00 | 0.00 | 47 | 1019.6 |
| 20260904163046 | 86 | 240 | 3.0 | 12.0 | 0.00 | 0.00 | 0.00 | 44 | 1019.6 |
| 20260904161544 | 86 | 271 | 5.0 | 11.0 | 0.00 | 0.00 | 0.00 | 43 | 1019.4 |
| 20260904160044 | 85 | 306 | 2.0 | 10.0 | 0.00 | 0.00 | 0.00 | 43 | 1019.4 |
| 20260904154549 | 86 | 213 | 2.0 | 9.0 | 0.00 | 0.00 | 0.00 | 42 | 1019.5 |
| 20260904153047 | 87 | 0 | 1.0 | 6.0 | 0.00 | 0.00 | 0.00 | 38 | 1019.5 |
| 20260904151544 | 87 | 281 | 3.0 | 10.0 | 0.00 | 0.00 | 0.00 | 39 | 1019.6 |
| 20260904150106 | 87 | 260 | 2.0 | 10.0 | 0.00 | 0.00 | 0.00 | 40 | 1019.8 |
| 20260904144548 | 87 | 287 | 3.0 | 10.0 | 0.00 | 0.00 | 0.00 | 37 | 1019.8 |
| 20260904143046 | 87 | 302 | 3.0 | 9.0 | 0.00 | 0.00 | 0.00 | 35 | 1020.1 |
| 20260904141546 | 87 | 259 | 4.0 | 11.0 | 0.00 | 0.00 | 0.00 | 38 | 1020.1 |
| 20260904140106 | 87 | 238 | 2.0 | 12.0 | 0.00 | 0.00 | 0.00 | 38 | 1020.1 |
| 20260904134553 | 86 | 310 | 3.0 | 12.0 | 0.00 | 0.00 | 0.00 | 37 | 1020.2 |
| 20260904133044 | 86 | 259 | 3.0 | 11.0 | 0.00 | 0.00 | 0.00 | 40 | 1020.3 |
| 20260904131544 | 85 | 281 | 4.0 | 11.0 | 0.00 | 0.00 | 0.00 | 41 | 1020.3 |
| 20260904130040 | 85 | 256 | 5.0 | 12.0 | 0.00 | 0.00 | 0.00 | 42 | 1020.4 |
| 20260904124548 | 84 | 252 | 3.0 | 9.0 | 0.00 | 0.00 | 0.00 | 42 | 1020.4 |
| 20260904123044 | 84 | 225 | 4.0 | 10.0 | 0.00 | 0.00 | 0.00 | 44 | 1020.3 |
| 20260904121543 | 83 | 235 | 2.0 | 10.0 | 0.00 | 0.00 | 0.00 | 43 | 1020.3 |
| 20260904120052 | 83 | 236 | 2.0 | 10.0 | 0.00 | 0.00 | 0.00 | 41 | 1020.5 |
| 20260904114547 | 83 | 225 | 1.0 | 10.0 | 0.00 | 0.00 | 0.00 | 40 | 1020.5 |
| 20260904113044 | 83 | 0 | 2.0 | 10.0 | 0.00 | 0.00 | 0.00 | 42 | 1020.6 |
| 20260904111543 | 82 | 313 | 1.0 | 7.0 | 0.00 | 0.00 | 0.00 | 43 | 1020.8 |
| 20260904110046 | 81 | 325 | 2.0 | 7.0 | 0.00 | 0.00 | 0.00 | 46 | 1020.8 |
| 20260904104543 | 81 | 250 | 1.0 | 11.0 | 0.00 | 0.00 | 0.00 | 50 | 1020.9 |
| 20260904103043 | 80 | 288 | 0.0 | 8.0 | 0.00 | 0.00 | 0.00 | 54 | 1020.8 |
| 20260904101603 | 80 | 0 | 1.0 | 7.0 | 0.00 | 0.00 | 0.00 | 57 | 1021.0 |
| 20260904100050 | 79 | 0 | 1.0 | 8.0 | 0.00 | 0.00 | 0.00 | 57 | 1020.9 |
| 20260904094545 | 79 | 0 | 0.0 | 2.0 | 0.00 | 0.00 | 0.00 | 62 | 1021.0 |
| 20260904093043 | 77 | 0 | 0.0 | 6.0 | 0.00 | 0.00 | 0.00 | 64 | 1021.1 |
| 20260904091550 | 76 | 0 | 0.0 | 6.0 | 0.00 | 0.00 | 0.00 | 66 | 1021.1 |
| 20260904090047 | 74 | 0 | 0.0 | 0.0 | 0.00 | 0.00 | 0.00 | 75 | 1021.0 |
| 20260904084543 | 73 | 0 | 0.0 | 0.0 | 0.00 | 0.00 | 0.00 | 80 | 1021.1 |
| 20260904083053 | 70 | 0 | 0.0 | 0.0 | 0.00 | 0.00 | 0.00 | 85 | 1020.9 |
| 20260904081547 | 67 | 0 | 0.0 | 0.0 | 0.00 | 0.00 | 0.00 | 89 | 1020.8 |
| 20260904080045 | 66 | 0 | 0.0 | 0.0 | 0.00 | 0.00 | 0.00 | 91 | 1020.7 |
| 20260904074544 | 65 | 0 | 0.0 | 0.0 | 0.00 | 0.00 | 0.00 | 92 | 1020.9 |
| 20260904073048 | 63 | 0 | 0.0 | 0.0 | 0.00 | 0.00 | 0.00 | 93 | 1020.9 |
| 20260904071550 | 62 | 0 | 0.0 | 0.0 | 0.00 | 0.00 | 0.00 | 94 | 1020.9 |
| 20260904070047 | 61 | 0 | 0.0 | 0.0 | 0.00 | 0.00 | 0.00 | 93 | 1020.9 |
| 20260904064543 | 61 | 0 | 0.0 | 0.0 | 0.00 | 0.00 | 0.00 | 94 | 1020.6 |
| 20260904063051 | 60 | 0 | 0.0 | 0.0 | 0.00 | 0.00 | 0.00 | 94 | 1020.7 |
| 20260904061549 | 60 | 0 | 0.0 | 0.0 | 0.00 | 0.00 | 0.00 | 94 | 1020.7 |
| 20260904060045 | 60 | 0 | 0.0 | 0.0 | 0.00 | 0.00 | 0.00 | 94 | 1020.5 |
| 20260904054546 | 59 | 0 | 0.0 | 0.0 | 0.00 | 0.00 | 0.00 | 93 | 1020.5 |
| 20260904053044 | 59 | 0 | 0.0 | 0.0 | 0.00 | 0.00 | 0.00 | 93 | 1020.5 |
| 20260904051547 | 59 | 0 | 0.0 | 0.0 | 0.00 | 0.00 | 0.00 | 93 | 1020.4 |
| 20260904050043 | 59 | 0 | 0.0 | 0.0 | 0.00 | 0.00 | 0.00 | 92 | 1020.4 |
| 20260904044542 | 60 | 0 | 0.0 | 0.0 | 0.00 | 0.00 | 0.00 | 92 | 1020.3 |
| 20260904043052 | 60 | 0 | 0.0 | 0.0 | 0.00 | 0.00 | 0.00 | 92 | 1020.3 |
| 20260904041545 | 60 | 0 | 0.0 | 0.0 | 0.00 | 0.00 | 0.00 | 92 | 1020.3 |
| 20260904040046 | 60 | 0 | 0.0 | 0.0 | 0.00 | 0.00 | 0.00 | 92 | 1020.5 |
| 20260904034550 | 60 | 0 | 0.0 | 0.0 | 0.00 | 0.00 | 0.00 | 92 | 1020.5 |
| 20260904033048 | 61 | 0 | 0.0 | 0.0 | 0.00 | 0.00 | 0.00 | 91 | 1020.6 |
| 20260904031543 | 61 | 0 | 0.0 | 0.0 | 0.00 | 0.00 | 0.00 | 91 | 1020.7 |
| 20260904030044 | 61 | 0 | 0.0 | 0.0 | 0.00 | 0.00 | 0.00 | 91 | 1020.7 |
| 20260904024548 | 61 | 0 | 0.0 | 0.0 | 0.00 | 0.00 | 0.00 | 91 | 1020.8 |
| 20260904023057 | 62 | 0 | 0.0 | 0.0 | 0.00 | 0.00 | 0.00 | 90 | 1021.0 |
| 20260904021545 | 62 | 0 | 0.0 | 0.0 | 0.00 | 0.00 | 0.00 | 90 | 1021.1 |
| 20260904020042 | 62 | 0 | 0.0 | 0.0 | 0.00 | 0.00 | 0.00 | 89 | 1021.3 |
| 20260904014558 | 62 | 0 | 0.0 | 0.0 | 0.00 | 0.00 | 0.00 | 89 | 1021.6 |
| 20260904013051 | 63 | 0 | 0.0 | 0.0 | 0.00 | 0.00 | 0.00 | 88 | 1021.5 |
| 20260904011551 | 63 | 0 | 0.0 | 0.0 | 0.00 | 0.00 | 0.00 | 88 | 1021.7 |
| 20260904010051 | 64 | 0 | 0.0 | 0.0 | 0.00 | 0.00 | 0.00 | 87 | 1021.9 |
| 20260904004546 | 64 | 0 | 0.0 | 0.0 | 0.00 | 0.00 | 0.00 | 87 | 1021.9 |
| 20260904003043 | 64 | 0 | 0.0 | 0.0 | 0.00 | 0.00 | 0.00 | 86 | 1021.8 |